Time,TemperatureF,DewpointF,PressureIn,WindDirection,WindDirectionDegrees,WindSpeedMPH,WindSpeedGustMPH,Humidity,HourlyPrecipIn,Conditions,Clouds,dailyrainin,SoftwareType,DateUTC
2013-05-09 00:01:00,53.6,53.0,29.94,ESE,112,0.0,0.0,98,0.00,RA,,0.00,WeatherDisplay:10.37,2013-05-09 04:01:00,
2013-05-09 00:02:00,53.4,52.8,29.94,ESE,112,0.0,0.0,98,0.00,RA,,0.00,WeatherDisplay:10.37,2013-05-09 04:02:00,
2013-05-09 00:04:00,53.2,52.7,29.94,ESE,112,0.0,0.0,98,0.00,RA,,0.00,WeatherDisplay:10.37,2013-05-09 04:04:00,
2013-05-09 00:05:00,53.1,52.8,29.94,ESE,112,0.0,0.0,99,0.00,RA,,0.00,WeatherDisplay:10.37,2013-05-09 04:05:00,
2013-05-09 00:08:00,53.1,52.8,29.94,ESE,112,0.0,0.0,99,0.00,RA,,0.00,WeatherDisplay:10.37,2013-05-09 04:08:00,
2013-05-09 00:13:00,53.2,52.9,29.94,ESE,112,0.0,0.0,99,0.00,RA,,0.00,WeatherDisplay:10.37,2013-05-09 04:13:00,
2013-05-09 00:18:00,53.2,52.9,29.93,ESE,112,0.0,0.0,99,0.00,FEW,,0.00,WeatherDisplay:10.37,2013-05-09 04:18:00,
2013-05-09 00:23:00,53.2,52.9,29.93,ESE,112,0.0,0.0,99,0.00,FEW,,0.00,WeatherDisplay:10.37,2013-05-09 04:23:00,
2013-05-09 00:28:00,53.2,52.9,29.93,ESE,112,0.0,0.0,99,0.00,FEW,,0.00,WeatherDisplay:10.37,2013-05-09 04:28:00,
2013-05-09 00:33:00,53.2,53.2,29.93,ESE,112,0.0,0.0,100,0.00,FEW,,0.00,WeatherDisplay:10.37,2013-05-09 04:33:00,
2013-05-09 00:38:00,53.2,53.2,29.93,ESE,112,0.0,0.0,100,0.00,FEW,,0.00,WeatherDisplay:10.37,2013-05-09 04:38:00,
2013-05-09 00:43:00,53.2,53.2,29.93,ESE,112,0.0,0.0,100,0.00,FEW,,0.00,WeatherDisplay:10.37,2013-05-09 04:43:00,
2013-05-09 00:48:00,53.2,53.2,29.93,ESE,112,0.0,0.0,100,0.00,FEW,,0.00,WeatherDisplay:10.37,2013-05-09 04:48:00,
2013-05-09 00:53:00,53.2,53.2,29.93,ESE,112,0.0,0.0,100,0.00,FEW,,0.00,WeatherDisplay:10.37,2013-05-09 04:53:00,
2013-05-09 00:58:00,53.4,53.4,29.93,ESE,112,0.0,0.0,100,0.00,FEW,,0.00,WeatherDisplay:10.37,2013-05-09 04:58:00,
2013-05-09 01:03:00,53.2,53.2,29.93,ESE,112,0.0,0.0,100,0.00,FEW,,0.00,WeatherDisplay:10.37,2013-05-09 05:03:00,
2013-05-09 01:08:00,53.2,53.2,29.93,ESE,112,0.0,0.0,100,0.00,FEW,,0.00,WeatherDisplay:10.37,2013-05-09 05:08:00,
2013-05-09 01:13:00,53.2,53.2,29.93,ESE,112,0.0,0.0,100,0.00,FEW,,0.00,WeatherDisplay:10.37,2013-05-09 05:13:00,
2013-05-09 01:18:00,53.8,53.8,29.93,ESE,112,0.0,0.0,100,0.01,RA,,0.01,WeatherDisplay:10.37,2013-05-09 05:18:00,
2013-05-09 01:23:00,53.8,53.8,29.93,ESE,112,0.0,0.0,100,0.01,RA,,0.02,WeatherDisplay:10.37,2013-05-09 05:23:00,
2013-05-09 01:28:00,53.8,53.8,29.93,ESE,112,0.0,0.0,100,0.02,RA,,0.02,WeatherDisplay:10.37,2013-05-09 05:28:00,
2013-05-09 01:33:00,54.0,54.0,29.93,ESE,112,0.0,0.0,100,0.02,RA,,0.02,WeatherDisplay:10.37,2013-05-09 05:33:00,
2013-05-09 01:38:00,54.1,54.1,29.93,ESE,112,1.6,2.7,100,0.02,RA,,0.02,WeatherDisplay:10.37,2013-05-09 05:38:00,
2013-05-09 01:43:00,54.1,54.1,29.93,ESE,112,0.1,2.3,100,0.02,FEW,,0.02,WeatherDisplay:10.37,2013-05-09 05:43:00,
2013-05-09 01:48:00,54.1,54.1,29.93,ESE,112,2.3,5.8,100,0.02,FEW,,0.02,WeatherDisplay:10.37,2013-05-09 05:48:00,
2013-05-09 01:53:00,54.1,54.1,29.92,ESE,112,2.0,2.7,100,0.02,FEW,,0.02,WeatherDisplay:10.37,2013-05-09 05:53:00,
2013-05-09 01:58:00,54.1,54.1,29.92,ESE,112,3.1,4.6,100,0.02,FEW,,0.02,WeatherDisplay:10.37,2013-05-09 05:58:00,
2013-05-09 02:03:00,54.1,54.1,29.92,ESE,112,0.0,2.3,100,0.02,FEW,,0.02,WeatherDisplay:10.37,2013-05-09 06:03:00,
2013-05-09 02:08:00,54.1,54.1,29.92,ESE,112,0.7,3.5,100,0.02,FEW,,0.02,WeatherDisplay:10.37,2013-05-09 06:08:00,
2013-05-09 02:13:00,54.1,54.1,29.92,ESE,112,1.8,2.7,100,0.02,FEW,,0.02,WeatherDisplay:10.37,2013-05-09 06:13:00,
2013-05-09 02:18:00,54.3,54.3,29.92,ESE,112,0.4,2.3,100,0.01,FEW,,0.02,WeatherDisplay:10.37,2013-05-09 06:18:00,
2013-05-09 02:23:00,54.1,54.1,29.92,ESE,112,1.8,2.7,100,0.01,FEW,,0.02,WeatherDisplay:10.37,2013-05-09 06:23:00,
2013-05-09 02:28:00,54.1,54.1,29.92,ESE,112,0.0,0.0,100,0.00,FEW,,0.02,WeatherDisplay:10.37,2013-05-09 06:28:00,
2013-05-09 02:33:00,54.1,54.1,29.92,ESE,112,0.0,0.0,100,0.00,FEW,,0.02,WeatherDisplay:10.37,2013-05-09 06:33:00,
2013-05-09 02:38:00,54.1,54.1,29.91,ESE,112,1.9,3.6,100,0.00,FEW,,0.02,WeatherDisplay:10.37,2013-05-09 06:38:00,
2013-05-09 02:43:00,54.3,54.3,29.91,ESE,112,0.0,3.5,100,0.00,FEW,,0.02,WeatherDisplay:10.37,2013-05-09 06:43:00,
2013-05-09 02:48:00,54.3,54.3,29.91,ESE,112,1.6,2.7,100,0.00,FEW,,0.02,WeatherDisplay:10.37,2013-05-09 06:48:00,
2013-05-09 02:53:00,54.3,54.3,29.91,ESE,112,0.0,0.0,100,0.00,FEW,,0.02,WeatherDisplay:10.37,2013-05-09 06:53:00,
2013-05-09 02:58:00,54.3,54.3,29.91,ESE,112,0.0,0.0,100,0.00,FEW,,0.02,WeatherDisplay:10.37,2013-05-09 06:58:00,
2013-05-09 03:03:00,54.3,54.3,29.91,ESE,112,0.0,0.0,100,0.00,FEW,,0.02,WeatherDisplay:10.37,2013-05-09 07:03:00,
2013-05-09 03:08:00,54.3,54.3,29.91,ESE,112,0.0,0.0,100,0.00,FEW,,0.02,WeatherDisplay:10.37,2013-05-09 07:08:00,
2013-05-09 03:13:00,54.3,54.3,29.91,ESE,112,0.0,0.0,100,0.00,FEW,,0.02,WeatherDisplay:10.37,2013-05-09 07:13:00,
2013-05-09 03:18:00,54.3,54.3,29.91,ESE,112,0.0,0.0,100,0.00,FEW,,0.02,WeatherDisplay:10.37,2013-05-09 07:18:00,
2013-05-09 03:23:00,54.3,54.3,29.91,ESE,112,0.0,0.0,100,0.00,FEW,,0.02,WeatherDisplay:10.37,2013-05-09 07:23:00,
2013-05-09 03:28:00,54.1,54.1,29.91,ESE,112,0.0,0.0,100,0.00,FEW,,0.02,WeatherDisplay:10.37,2013-05-09 07:28:00,
2013-05-09 03:33:00,54.1,54.1,29.91,ESE,112,0.0,0.0,100,0.00,FEW,,0.02,WeatherDisplay:10.37,2013-05-09 07:33:00,
2013-05-09 03:38:00,54.1,54.1,29.91,ESE,112,0.0,0.0,100,0.00,FEW,,0.02,WeatherDisplay:10.37,2013-05-09 07:38:00,
2013-05-09 03:43:00,54.1,54.1,29.91,ESE,112,0.0,0.0,100,0.00,FEW,,0.02,WeatherDisplay:10.37,2013-05-09 07:43:00,
2013-05-09 03:48:00,54.1,54.1,29.91,ESE,112,0.0,0.0,100,0.00,FEW,,0.02,WeatherDisplay:10.37,2013-05-09 07:48:00,
2013-05-09 03:53:00,54.0,54.0,29.91,ESE,112,0.0,0.0,100,0.00,FEW,,0.02,WeatherDisplay:10.37,2013-05-09 07:53:00,
2013-05-09 03:58:00,54.0,54.0,29.91,ESE,112,0.0,0.0,100,0.00,FEW,,0.02,WeatherDisplay:10.37,2013-05-09 07:58:00,
2013-05-09 04:03:00,53.8,53.8,29.91,ESE,112,0.0,0.0,100,0.00,FEW,,0.02,WeatherDisplay:10.37,2013-05-09 08:03:00,
2013-05-09 04:08:00,53.8,53.8,29.91,ESE,112,0.0,0.0,100,0.00,FEW,,0.02,WeatherDisplay:10.37,2013-05-09 08:08:00,
2013-05-09 04:13:00,53.6,53.6,29.91,ESE,112,0.0,0.0,100,0.00,FEW,,0.02,WeatherDisplay:10.37,2013-05-09 08:13:00,
2013-05-09 04:18:00,53.6,53.6,29.91,ESE,112,0.0,0.0,100,0.00,FEW,,0.02,WeatherDisplay:10.37,2013-05-09 08:18:00,
2013-05-09 04:23:00,53.6,53.6,29.91,ESE,112,0.0,0.0,100,0.00,FEW,,0.02,WeatherDisplay:10.37,2013-05-09 08:23:00,
2013-05-09 04:28:00,53.8,53.8,29.92,ESE,112,0.0,0.0,100,0.00,FEW,,0.02,WeatherDisplay:10.37,2013-05-09 08:28:00,
2013-05-09 04:33:00,53.8,53.8,29.92,ESE,112,0.0,0.0,100,0.00,FEW,,0.02,WeatherDisplay:10.37,2013-05-09 08:33:00,
2013-05-09 04:38:00,53.8,53.8,29.92,ESE,112,0.0,0.0,100,0.00,FEW,,0.02,WeatherDisplay:10.37,2013-05-09 08:38:00,
2013-05-09 04:43:00,53.8,53.8,29.92,ESE,112,1.8,2.7,100,0.00,FEW,,0.02,WeatherDisplay:10.37,2013-05-09 08:43:00,
2013-05-09 04:48:00,53.8,53.8,29.92,ESE,112,0.0,0.0,100,0.00,FEW,,0.02,WeatherDisplay:10.37,2013-05-09 08:48:00,
2013-05-09 04:53:00,53.4,53.4,29.91,ESE,112,0.0,0.0,100,0.00,FEW,,0.02,WeatherDisplay:10.37,2013-05-09 08:53:00,
2013-05-09 04:58:00,53.4,53.4,29.91,ESE,112,0.0,0.0,100,0.00,FEW,,0.02,WeatherDisplay:10.37,2013-05-09 08:58:00,
2013-05-09 05:03:00,53.1,53.1,29.92,ESE,112,0.0,0.0,100,0.00,FEW,,0.02,WeatherDisplay:10.37,2013-05-09 09:03:00,
2013-05-09 05:08:00,53.1,53.1,29.92,ESE,112,0.0,0.0,100,0.00,FEW,,0.02,WeatherDisplay:10.37,2013-05-09 09:08:00,
2013-05-09 05:13:00,52.7,52.7,29.92,ESE,112,0.0,0.0,100,0.00,FEW,,0.02,WeatherDisplay:10.37,2013-05-09 09:13:00,
2013-05-09 05:18:00,52.7,52.7,29.92,ESE,112,0.0,0.0,100,0.00,FEW,,0.02,WeatherDisplay:10.37,2013-05-09 09:18:00,
2013-05-09 05:23:00,52.7,52.7,29.92,ESE,112,0.0,0.0,100,0.00,FEW,,0.02,WeatherDisplay:10.37,2013-05-09 09:23:00,
2013-05-09 05:28:00,52.5,52.5,29.91,ESE,112,0.0,0.0,100,0.00,FEW,,0.02,WeatherDisplay:10.37,2013-05-09 09:28:00,
2013-05-09 05:33:00,52.3,52.3,29.91,ESE,112,0.0,0.0,100,0.00,FEW,,0.02,WeatherDisplay:10.37,2013-05-09 09:33:00,
2013-05-09 05:38:00,52.2,52.2,29.91,ESE,112,0.0,0.0,100,0.00,FEW,,0.02,WeatherDisplay:10.37,2013-05-09 09:38:00,
2013-05-09 05:43:00,52.0,52.0,29.91,ESE,112,0.0,0.0,100,0.00,FEW,,0.02,WeatherDisplay:10.37,2013-05-09 09:43:00,
2013-05-09 05:48:00,51.8,51.8,29.91,ESE,112,0.0,0.0,100,0.00,FEW,,0.02,WeatherDisplay:10.37,2013-05-09 09:48:00,
2013-05-09 05:53:00,51.8,51.8,29.92,ESE,112,0.0,0.0,100,0.00,FEW,,0.02,WeatherDisplay:10.37,2013-05-09 09:53:00,
2013-05-09 05:58:00,51.8,51.8,29.92,ESE,112,0.0,0.0,100,0.00,FEW,,0.02,WeatherDisplay:10.37,2013-05-09 09:58:00,
2013-05-09 06:03:00,51.6,51.6,29.92,ESE,112,0.0,0.0,100,0.00,FEW,,0.02,WeatherDisplay:10.37,2013-05-09 10:03:00,
2013-05-09 06:08:00,51.3,51.3,29.92,ESE,112,0.0,0.0,100,0.00,FEW,,0.02,WeatherDisplay:10.37,2013-05-09 10:08:00,
2013-05-09 06:13:00,51.1,51.1,29.94,ESE,112,0.0,0.0,100,0.00,FEW,,0.02,WeatherDisplay:10.37,2013-05-09 10:13:00,
2013-05-09 06:18:00,51.1,51.1,29.94,ESE,112,0.0,0.0,100,0.00,FEW,,0.02,WeatherDisplay:10.37,2013-05-09 10:18:00,
2013-05-09 06:23:00,51.3,51.3,29.94,ESE,112,0.0,0.0,100,0.00,FEW,,0.02,WeatherDisplay:10.37,2013-05-09 10:23:00,
2013-05-09 06:28:00,51.6,51.6,29.94,ESE,112,0.0,2.3,100,0.00,FEW,,0.02,WeatherDisplay:10.37,2013-05-09 10:28:00,
2013-05-09 06:33:00,51.6,51.6,29.94,ESE,112,0.0,0.0,100,0.00,FEW,,0.02,WeatherDisplay:10.37,2013-05-09 10:33:00,
2013-05-09 06:38:00,51.8,51.8,29.95,ESE,112,0.0,0.0,100,0.00,FEW,,0.02,WeatherDisplay:10.37,2013-05-09 10:38:00,
2013-05-09 06:43:00,52.2,52.2,29.95,ESE,112,0.0,0.0,100,0.00,FEW,,0.02,WeatherDisplay:10.37,2013-05-09 10:43:00,
2013-05-09 06:48:00,52.5,52.5,29.95,ESE,112,0.0,0.0,100,0.00,FEW,,0.02,WeatherDisplay:10.37,2013-05-09 10:48:00,
2013-05-09 06:53:00,53.2,53.2,29.95,ESE,112,0.0,0.0,100,0.00,FEW,,0.02,WeatherDisplay:10.37,2013-05-09 10:53:00,
2013-05-09 06:58:00,53.8,53.8,29.95,ESE,112,0.0,2.3,100,0.00,FEW,,0.02,WeatherDisplay:10.37,2013-05-09 10:58:00,
2013-05-09 07:04:00,54.1,54.1,29.95,ESE,112,1.9,3.6,100,0.00,FEW,,0.02,WeatherDisplay:10.37,2013-05-09 11:04:00,
2013-05-09 07:09:00,54.7,54.7,29.95,ESE,112,0.0,0.0,100,0.00,FEW,,0.02,WeatherDisplay:10.37,2013-05-09 11:09:00,
2013-05-09 07:14:00,54.9,54.6,29.95,ESE,112,0.0,0.0,99,0.00,FEW,,0.02,WeatherDisplay:10.37,2013-05-09 11:14:00,
2013-05-09 07:19:00,55.2,54.9,29.95,ESE,112,0.0,5.8,99,0.00,BKN,,0.02,WeatherDisplay:10.37,2013-05-09 11:19:00,
2013-05-09 07:24:00,55.8,55.2,29.95,ESE,112,0.0,0.0,98,0.00,BKN,,0.02,WeatherDisplay:10.37,2013-05-09 11:24:00,
2013-05-09 07:29:00,56.1,55.0,29.96,South,180,2.4,4.6,96,0.00,BKN,,0.02,WeatherDisplay:10.37,2013-05-09 11:29:00,
2013-05-09 07:34:00,56.3,54.9,29.96,South,180,2.5,4.6,95,0.00,BKN,,0.02,WeatherDisplay:10.37,2013-05-09 11:34:00,
2013-05-09 07:39:00,56.3,55.2,29.96,South,180,2.7,3.5,96,0.00,BKN,,0.02,WeatherDisplay:10.37,2013-05-09 11:39:00,
2013-05-09 07:44:00,56.5,55.1,29.96,West,270,2.5,4.6,95,0.00,BKN,,0.02,WeatherDisplay:10.37,2013-05-09 11:44:00,
2013-05-09 07:49:00,56.7,55.6,29.96,West,270,2.3,3.5,96,0.00,BKN,,0.02,WeatherDisplay:10.37,2013-05-09 11:49:00,
2013-05-09 07:54:00,56.3,55.2,29.97,West,270,0.0,0.0,96,0.00,BKN,,0.02,WeatherDisplay:10.37,2013-05-09 11:54:00,
2013-05-09 07:59:00,56.3,55.2,29.97,South,180,2.3,3.5,96,0.00,BKN,,0.02,WeatherDisplay:10.37,2013-05-09 11:59:00,
2013-05-09 08:04:00,56.7,55.6,29.98,South,180,3.2,5.8,96,0.00,BKN,,0.02,WeatherDisplay:10.37,2013-05-09 12:04:00,
2013-05-09 08:09:00,56.5,55.1,29.98,South,180,4.0,5.8,95,0.00,BKN,,0.02,WeatherDisplay:10.37,2013-05-09 12:09:00,
2013-05-09 08:14:00,56.7,55.3,29.99,South,180,2.6,5.8,95,0.00,BKN,,0.02,WeatherDisplay:10.37,2013-05-09 12:14:00,
2013-05-09 08:19:00,56.7,55.3,29.99,West,270,3.3,3.6,95,0.00,BKN,,0.02,WeatherDisplay:10.37,2013-05-09 12:19:00,
2013-05-09 08:24:00,56.8,55.4,29.99,West,270,2.5,3.6,95,0.00,BKN,,0.02,WeatherDisplay:10.37,2013-05-09 12:24:00,
2013-05-09 08:29:00,57.2,55.8,29.99,SW,225,0.8,2.7,95,0.00,BKN,,0.02,WeatherDisplay:10.37,2013-05-09 12:29:00,
2013-05-09 08:34:00,57.2,55.5,29.99,SW,225,0.0,2.3,94,0.00,BKN,,0.02,WeatherDisplay:10.37,2013-05-09 12:34:00,
2013-05-09 08:39:00,57.4,55.7,29.99,South,180,2.7,4.6,94,0.00,BKN,,0.02,WeatherDisplay:10.37,2013-05-09 12:39:00,
2013-05-09 08:44:00,57.6,55.6,29.99,WSW,248,4.1,8.1,93,0.00,BKN,,0.02,WeatherDisplay:10.37,2013-05-09 12:44:00,
2013-05-09 08:49:00,57.4,55.4,29.99,SSE,158,4.7,7.0,93,0.00,BKN,,0.02,WeatherDisplay:10.37,2013-05-09 12:49:00,
2013-05-09 08:54:00,57.4,55.4,30.00,WNW,292,2.9,4.6,93,0.00,BKN,,0.02,WeatherDisplay:10.37,2013-05-09 12:54:00,
2013-05-09 08:59:00,57.2,55.2,30.00,SW,225,3.0,4.6,93,0.00,BKN,,0.02,WeatherDisplay:10.37,2013-05-09 12:59:00,
2013-05-09 09:04:00,57.2,55.2,30.00,SSE,158,3.2,4.6,93,0.00,OVC,,0.02,WeatherDisplay:10.37,2013-05-09 13:04:00,
2013-05-09 09:09:00,57.2,55.5,30.00,South,180,3.3,3.6,94,0.00,OVC,,0.02,WeatherDisplay:10.37,2013-05-09 13:09:00,
2013-05-09 09:14:00,57.2,55.5,30.00,South,180,2.6,3.6,94,0.00,OVC,,0.02,WeatherDisplay:10.37,2013-05-09 13:14:00,
2013-05-09 09:19:00,57.0,55.3,30.00,SSE,158,2.5,3.5,94,0.00,OVC,,0.02,WeatherDisplay:10.37,2013-05-09 13:19:00,
2013-05-09 09:24:00,57.4,55.4,30.00,South,180,2.7,3.5,93,0.00,OVC,,0.02,WeatherDisplay:10.37,2013-05-09 13:24:00,
2013-05-09 09:29:00,57.6,55.6,30.00,South,180,2.6,4.6,93,0.00,OVC,,0.02,WeatherDisplay:10.37,2013-05-09 13:29:00,
2013-05-09 09:34:00,57.6,55.6,30.00,SSE,158,3.5,8.1,93,0.00,OVC,,0.02,WeatherDisplay:10.37,2013-05-09 13:34:00,
2013-05-09 09:39:00,57.7,55.4,30.00,SW,225,4.0,5.3,92,0.00,OVC,,0.02,WeatherDisplay:10.37,2013-05-09 13:39:00,
2013-05-09 09:44:00,58.3,56.0,30.00,WSW,248,2.7,5.8,92,0.00,OVC,,0.02,WeatherDisplay:10.37,2013-05-09 13:44:00,
2013-05-09 09:49:00,58.5,56.2,30.00,WSW,248,2.7,2.7,92,0.00,OVC,,0.02,WeatherDisplay:10.37,2013-05-09 13:49:00,
2013-05-09 09:54:00,58.1,56.1,30.00,South,180,3.3,6.9,93,0.00,OVC,,0.02,WeatherDisplay:10.37,2013-05-09 13:54:00,
2013-05-09 09:59:00,58.8,56.5,30.00,West,270,2.0,4.6,92,0.00,OVC,,0.02,WeatherDisplay:10.37,2013-05-09 13:59:00,
2013-05-09 10:04:00,58.8,56.5,30.00,SSE,158,4.9,6.1,92,0.00,OVC,,0.02,WeatherDisplay:10.37,2013-05-09 14:04:00,
2013-05-09 10:09:00,59.2,56.9,30.00,SSE,158,3.2,4.6,92,0.01,RA,,0.03,WeatherDisplay:10.37,2013-05-09 14:09:00,
2013-05-09 10:14:00,59.2,56.9,30.00,SSE,158,3.6,3.6,92,0.01,RA,,0.03,WeatherDisplay:10.37,2013-05-09 14:14:00,
2013-05-09 10:19:00,59.2,56.9,30.00,SSE,158,4.4,4.6,92,0.01,RA,,0.03,WeatherDisplay:10.37,2013-05-09 14:19:00,
2013-05-09 10:24:00,59.2,56.9,30.00,West,270,4.4,4.6,92,0.01,OVC,,0.03,WeatherDisplay:10.37,2013-05-09 14:24:00,
2013-05-09 10:29:00,59.0,57.0,30.00,SSE,158,4.4,4.6,93,0.01,OVC,,0.03,WeatherDisplay:10.37,2013-05-09 14:29:00,
2013-05-09 10:34:00,59.0,56.7,30.00,SE,135,6.1,6.1,92,0.01,OVC,,0.03,WeatherDisplay:10.37,2013-05-09 14:34:00,
2013-05-09 10:39:00,59.7,57.1,29.99,SSE,158,3.0,4.6,91,0.01,OVC,,0.03,WeatherDisplay:10.37,2013-05-09 14:39:00,
2013-05-09 10:44:00,60.4,57.5,29.99,West,270,4.3,5.3,90,0.01,OVC,,0.03,WeatherDisplay:10.37,2013-05-09 14:44:00,
2013-05-09 10:49:00,61.0,57.7,29.99,South,180,2.7,5.8,89,0.01,OVC,,0.03,WeatherDisplay:10.37,2013-05-09 14:49:00,
2013-05-09 10:54:00,61.3,57.4,30.00,SSW,202,4.1,5.8,87,0.01,OVC,,0.03,WeatherDisplay:10.37,2013-05-09 14:54:00,
2013-05-09 10:59:00,62.6,58.0,30.00,SW,225,3.9,4.6,85,0.01,OVC,,0.03,WeatherDisplay:10.37,2013-05-09 14:59:00,
2013-05-09 11:04:00,63.0,57.8,30.00,ESE,112,3.1,8.1,83,0.01,OVC,,0.03,WeatherDisplay:10.37,2013-05-09 15:04:00,
2013-05-09 11:09:00,63.9,58.0,30.00,SSE,158,5.3,8.1,81,0.00,OVC,,0.03,WeatherDisplay:10.37,2013-05-09 15:09:00,
2013-05-09 11:14:00,64.0,57.7,30.00,WNW,292,6.4,8.7,80,0.00,OVC,,0.03,WeatherDisplay:10.37,2013-05-09 15:14:00,
2013-05-09 11:19:00,62.2,56.6,30.00,South,180,3.8,5.8,82,0.00,OVC,,0.03,WeatherDisplay:10.37,2013-05-09 15:19:00,
2013-05-09 11:24:00,62.8,57.2,30.00,WSW,248,5.7,9.2,82,0.00,OVC,,0.03,WeatherDisplay:10.37,2013-05-09 15:24:00,
2013-05-09 11:29:00,63.5,57.6,30.00,SW,225,4.0,9.2,81,0.00,OVC,,0.03,WeatherDisplay:10.37,2013-05-09 15:29:00,
2013-05-09 11:34:00,62.6,57.4,30.00,WNW,292,3.3,6.9,83,0.00,OVC,,0.03,WeatherDisplay:10.37,2013-05-09 15:34:00,
2013-05-09 11:39:00,62.4,57.5,30.00,South,180,4.5,9.2,84,0.00,OVC,,0.03,WeatherDisplay:10.37,2013-05-09 15:39:00,
2013-05-09 11:44:00,62.6,57.7,30.00,WNW,292,5.6,7.0,84,0.00,OVC,,0.03,WeatherDisplay:10.37,2013-05-09 15:44:00,
2013-05-09 11:49:00,62.8,56.9,30.00,South,180,3.3,11.5,81,0.00,OVC,,0.03,WeatherDisplay:10.37,2013-05-09 15:49:00,
2013-05-09 11:54:00,63.5,57.6,30.00,West,270,5.6,6.1,81,0.00,OVC,,0.03,WeatherDisplay:10.37,2013-05-09 15:54:00,
2013-05-09 11:59:00,64.2,57.5,30.00,West,270,6.0,9.5,79,0.00,OVC,,0.03,WeatherDisplay:10.37,2013-05-09 15:59:00,
2013-05-09 12:04:00,64.2,57.5,30.00,WSW,248,5.7,9.2,79,0.00,OVC,,0.03,WeatherDisplay:10.37,2013-05-09 16:04:00,
2013-05-09 12:09:00,63.5,56.9,30.00,West,270,7.0,9.2,79,0.00,OVC,,0.03,WeatherDisplay:10.37,2013-05-09 16:09:00,
2013-05-09 12:14:00,63.7,57.1,30.00,WNW,292,3.5,9.2,79,0.00,OVC,,0.03,WeatherDisplay:10.37,2013-05-09 16:14:00,
2013-05-09 12:19:00,64.2,57.2,30.00,West,270,6.8,9.2,78,0.00,OVC,,0.03,WeatherDisplay:10.37,2013-05-09 16:19:00,
2013-05-09 12:24:00,64.6,57.6,30.00,WSW,248,3.1,5.8,78,0.00,OVC,,0.03,WeatherDisplay:10.37,2013-05-09 16:24:00,
2013-05-09 12:29:00,65.7,57.2,30.00,SSE,158,5.0,9.2,74,0.00,OVC,,0.03,WeatherDisplay:10.37,2013-05-09 16:29:00,
2013-05-09 12:34:00,67.1,57.0,30.00,West,270,5.6,7.0,70,0.00,OVC,,0.03,WeatherDisplay:10.37,2013-05-09 16:34:00,
2013-05-09 12:39:00,67.6,57.5,29.99,North,360,4.8,9.2,70,0.00,OVC,,0.03,WeatherDisplay:10.37,2013-05-09 16:39:00,
2013-05-09 12:44:00,67.1,57.4,29.99,WNW,292,6.0,8.1,71,0.00,OVC,,0.03,WeatherDisplay:10.37,2013-05-09 16:44:00,
2013-05-09 12:49:00,66.6,56.9,29.99,WSW,248,9.0,11.2,71,0.00,OVC,,0.03,WeatherDisplay:10.37,2013-05-09 16:49:00,
2013-05-09 12:54:00,67.8,57.3,29.99,West,270,5.6,11.5,69,0.00,OVC,,0.03,WeatherDisplay:10.37,2013-05-09 16:54:00,
2013-05-09 12:59:00,68.4,57.0,29.99,ENE,68,8.6,12.1,67,0.00,OVC,,0.03,WeatherDisplay:10.37,2013-05-09 16:59:00,
2013-05-09 13:04:00,68.7,57.7,29.99,WNW,292,7.8,12.9,68,0.00,BKN,,0.03,WeatherDisplay:10.37,2013-05-09 17:04:00,
2013-05-09 13:09:00,68.9,57.9,29.99,West,270,6.6,11.5,68,0.00,BKN,,0.03,WeatherDisplay:10.37,2013-05-09 17:09:00,
2013-05-09 13:14:00,70.3,57.5,29.99,WSW,248,5.8,9.2,64,0.00,BKN,,0.03,WeatherDisplay:10.37,2013-05-09 17:14:00,
2013-05-09 13:19:00,68.5,56.7,29.99,South,180,4.2,9.2,66,0.00,BKN,,0.03,WeatherDisplay:10.37,2013-05-09 17:19:00,
2013-05-09 13:24:00,69.8,57.5,29.99,NE,45,5.3,9.2,65,0.00,BKN,,0.03,WeatherDisplay:10.37,2013-05-09 17:24:00,
2013-05-09 13:29:00,68.5,57.1,29.98,NNW,338,6.7,9.2,67,0.00,BKN,,0.03,WeatherDisplay:10.37,2013-05-09 17:29:00,
2013-05-09 13:34:00,68.4,57.0,29.98,WSW,248,4.9,6.1,67,0.00,BKN,,0.03,WeatherDisplay:10.37,2013-05-09 17:34:00,
2013-05-09 13:39:00,68.7,57.3,29.98,WSW,248,2.7,2.7,67,0.00,BKN,,0.03,WeatherDisplay:10.37,2013-05-09 17:39:00,
2013-05-09 13:44:00,70.3,57.1,29.98,North,360,7.0,7.0,63,0.00,BKN,,0.03,WeatherDisplay:10.37,2013-05-09 17:44:00,
2013-05-09 13:49:00,70.3,57.1,29.98,North,360,7.0,7.0,63,0.00,BKN,,0.03,WeatherDisplay:10.37,2013-05-09 17:49:00,
2013-05-09 13:54:00,69.4,57.5,29.98,WNW,292,3.4,4.6,66,0.00,BKN,,0.03,WeatherDisplay:10.37,2013-05-09 17:54:00,
2013-05-09 13:59:00,70.3,56.7,29.98,WNW,292,3.4,5.3,62,0.00,BKN,,0.03,WeatherDisplay:10.37,2013-05-09 17:59:00,
2013-05-09 14:04:00,71.6,57.0,29.98,WNW,292,9.5,9.5,60,0.00,BKN,,0.03,WeatherDisplay:10.37,2013-05-09 18:04:00,
2013-05-09 14:09:00,71.2,56.6,29.98,NW,315,2.7,2.7,60,0.00,BKN,,0.03,WeatherDisplay:10.37,2013-05-09 18:09:00,
2013-05-09 14:14:00,71.2,56.6,29.98,NW,315,2.7,2.7,60,0.00,BKN,,0.03,WeatherDisplay:10.37,2013-05-09 18:14:00,
2013-05-09 14:19:00,71.2,56.6,29.98,NW,315,2.7,2.7,60,0.00,BKN,,0.03,WeatherDisplay:10.37,2013-05-09 18:19:00,
2013-05-09 14:24:00,71.2,56.6,29.98,NW,315,2.7,2.7,60,0.00,BKN,,0.03,WeatherDisplay:10.37,2013-05-09 18:24:00,
2013-05-09 14:29:00,71.2,56.6,29.98,NW,315,2.7,2.7,60,0.00,BKN,,0.03,WeatherDisplay:10.37,2013-05-09 18:29:00,
2013-05-09 14:34:00,71.2,56.6,29.98,NW,315,2.7,2.7,60,0.00,BKN,,0.03,WeatherDisplay:10.37,2013-05-09 18:34:00,
2013-05-09 14:39:00,71.2,56.6,29.98,NW,315,2.7,2.7,60,0.00,BKN,,0.03,WeatherDisplay:10.37,2013-05-09 18:39:00,
2013-05-09 14:44:00,71.2,56.6,29.98,NW,315,2.7,2.7,60,0.00,BKN,,0.03,WeatherDisplay:10.37,2013-05-09 18:44:00,
2013-05-09 14:49:00,71.2,56.6,29.98,NW,315,2.7,2.7,60,0.00,BKN,,0.03,WeatherDisplay:10.37,2013-05-09 18:49:00,
2013-05-09 14:54:00,71.2,56.6,29.98,NW,315,2.7,2.7,60,0.00,BKN,,0.03,WeatherDisplay:10.37,2013-05-09 18:54:00,
2013-05-09 14:59:00,71.2,56.6,29.98,NW,315,2.7,2.7,60,0.00,BKN,,0.03,WeatherDisplay:10.37,2013-05-09 18:59:00,
2013-05-09 15:04:00,71.2,56.6,29.98,NW,315,2.7,2.7,60,0.00,BKN,,0.03,WeatherDisplay:10.37,2013-05-09 19:04:00,
2013-05-09 15:09:00,71.2,56.6,29.98,NW,315,2.7,2.7,60,0.00,BKN,,0.03,WeatherDisplay:10.37,2013-05-09 19:09:00,
2013-05-09 15:14:00,71.2,56.6,29.98,NW,315,2.7,2.7,60,0.00,BKN,,0.03,WeatherDisplay:10.37,2013-05-09 19:14:00,
2013-05-09 15:19:00,71.2,56.6,29.98,NW,315,2.7,2.7,60,0.00,BKN,,0.03,WeatherDisplay:10.37,2013-05-09 19:19:00,
2013-05-09 15:24:00,71.2,56.6,29.98,NW,315,2.7,2.7,60,0.00,BKN,,0.03,WeatherDisplay:10.37,2013-05-09 19:24:00,
2013-05-09 15:29:00,71.2,56.6,29.98,NW,315,2.7,2.7,60,0.00,BKN,,0.03,WeatherDisplay:10.37,2013-05-09 19:29:00,
2013-05-09 15:34:00,71.2,56.6,29.98,NW,315,2.7,2.7,60,0.00,BKN,,0.03,WeatherDisplay:10.37,2013-05-09 19:34:00,
2013-05-09 15:39:00,71.2,56.6,29.98,NW,315,2.7,2.7,60,0.00,BKN,,0.03,WeatherDisplay:10.37,2013-05-09 19:39:00,
2013-05-09 15:44:00,71.2,56.6,29.98,NW,315,2.7,2.7,60,0.00,BKN,,0.03,WeatherDisplay:10.37,2013-05-09 19:44:00,
2013-05-09 15:49:00,71.2,56.6,29.98,NW,315,2.7,2.7,60,0.00,BKN,,0.03,WeatherDisplay:10.37,2013-05-09 19:49:00,
2013-05-09 15:54:00,71.2,56.6,29.98,NW,315,2.7,2.7,60,0.00,BKN,,0.03,WeatherDisplay:10.37,2013-05-09 19:54:00,
2013-05-09 15:59:00,71.2,56.6,29.98,NW,315,2.7,2.7,60,0.00,BKN,,0.03,WeatherDisplay:10.37,2013-05-09 19:59:00,
2013-05-09 16:04:00,71.2,56.6,29.98,NW,315,2.7,2.7,60,0.00,BKN,,0.03,WeatherDisplay:10.37,2013-05-09 20:04:00,
2013-05-09 16:09:00,71.2,56.6,29.98,NW,315,2.7,2.7,60,0.00,BKN,,0.03,WeatherDisplay:10.37,2013-05-09 20:09:00,
2013-05-09 16:14:00,71.2,56.6,29.98,NW,315,2.7,2.7,60,0.00,BKN,,0.03,WeatherDisplay:10.37,2013-05-09 20:14:00,
2013-05-09 16:19:00,71.2,56.6,29.98,NW,315,2.7,2.7,60,0.00,BKN,,0.03,WeatherDisplay:10.37,2013-05-09 20:19:00,
2013-05-09 16:24:00,71.2,56.6,29.98,NW,315,2.7,2.7,60,0.00,BKN,,0.03,WeatherDisplay:10.37,2013-05-09 20:24:00,
2013-05-09 16:29:00,71.2,56.6,29.98,NW,315,2.7,2.7,60,0.00,BKN,,0.03,WeatherDisplay:10.37,2013-05-09 20:29:00,
2013-05-09 16:34:00,71.2,56.6,29.98,NW,315,2.7,2.7,60,0.00,BKN,,0.03,WeatherDisplay:10.37,2013-05-09 20:34:00,
2013-05-09 16:39:00,71.2,56.6,29.98,NW,315,2.7,2.7,60,0.00,BKN,,0.03,WeatherDisplay:10.37,2013-05-09 20:39:00,
2013-05-09 16:44:00,71.2,56.6,29.98,NW,315,2.7,2.7,60,0.00,BKN,,0.03,WeatherDisplay:10.37,2013-05-09 20:44:00,
2013-05-09 16:49:00,71.2,56.6,29.98,NW,315,2.7,2.7,60,0.00,BKN,,0.03,WeatherDisplay:10.37,2013-05-09 20:49:00,
2013-05-09 16:54:00,71.2,56.6,29.98,NW,315,2.7,2.7,60,0.00,BKN,,0.03,WeatherDisplay:10.37,2013-05-09 20:54:00,
2013-05-09 16:59:00,71.2,56.6,29.98,NW,315,2.7,2.7,60,0.00,BKN,,0.03,WeatherDisplay:10.37,2013-05-09 20:59:00,
2013-05-09 17:04:00,71.2,56.6,29.98,NW,315,2.7,2.7,60,0.00,BKN,,0.03,WeatherDisplay:10.37,2013-05-09 21:04:00,
2013-05-09 17:09:00,71.2,56.6,29.98,NW,315,2.7,2.7,60,0.00,BKN,,0.03,WeatherDisplay:10.37,2013-05-09 21:09:00,
2013-05-09 17:14:00,71.2,56.6,29.98,NW,315,2.7,2.7,60,0.00,BKN,,0.03,WeatherDisplay:10.37,2013-05-09 21:14:00,
2013-05-09 17:19:00,71.2,56.6,29.98,NW,315,2.7,2.7,60,0.00,BKN,,0.03,WeatherDisplay:10.37,2013-05-09 21:19:00,
2013-05-09 17:24:00,71.2,56.6,29.98,NW,315,2.7,2.7,60,0.00,BKN,,0.03,WeatherDisplay:10.37,2013-05-09 21:24:00,
2013-05-09 17:29:00,71.2,56.6,29.98,NW,315,2.7,2.7,60,0.00,BKN,,0.03,WeatherDisplay:10.37,2013-05-09 21:29:00,
2013-05-09 17:34:00,71.2,56.6,29.98,NW,315,2.7,2.7,60,0.00,BKN,,0.03,WeatherDisplay:10.37,2013-05-09 21:34:00,
2013-05-09 17:39:00,71.2,56.6,29.98,NW,315,2.7,2.7,60,0.00,BKN,,0.03,WeatherDisplay:10.37,2013-05-09 21:39:00,
2013-05-09 17:44:00,71.2,56.6,29.98,NW,315,2.7,2.7,60,0.00,BKN,,0.03,WeatherDisplay:10.37,2013-05-09 21:44:00,
2013-05-09 17:49:00,71.2,56.6,29.98,NW,315,2.7,2.7,60,0.00,BKN,,0.03,WeatherDisplay:10.37,2013-05-09 21:49:00,
2013-05-09 17:54:00,71.2,56.6,29.98,NW,315,2.7,2.7,60,0.00,BKN,,0.03,WeatherDisplay:10.37,2013-05-09 21:54:00,
2013-05-09 17:59:00,71.2,56.6,29.98,NW,315,2.7,2.7,60,0.00,BKN,,0.03,WeatherDisplay:10.37,2013-05-09 21:59:00,
2013-05-09 18:04:00,71.2,56.6,29.98,NW,315,2.7,2.7,60,0.00,BKN,,0.03,WeatherDisplay:10.37,2013-05-09 22:04:00,
2013-05-09 18:09:00,71.2,56.6,29.98,NW,315,2.7,2.7,60,0.00,BKN,,0.03,WeatherDisplay:10.37,2013-05-09 22:09:00,
2013-05-09 18:14:00,71.2,56.6,29.98,NW,315,2.7,2.7,60,0.00,BKN,,0.03,WeatherDisplay:10.37,2013-05-09 22:14:00,
2013-05-09 18:19:00,71.2,56.6,29.98,NW,315,2.7,2.7,60,0.00,BKN,,0.03,WeatherDisplay:10.37,2013-05-09 22:19:00,
2013-05-09 18:24:00,71.2,56.6,29.98,NW,315,2.7,2.7,60,0.00,BKN,,0.03,WeatherDisplay:10.37,2013-05-09 22:24:00,
2013-05-09 18:29:00,71.2,56.6,29.98,NW,315,2.7,2.7,60,0.00,BKN,,0.03,WeatherDisplay:10.37,2013-05-09 22:29:00,
2013-05-09 18:34:00,71.2,56.6,29.98,NW,315,2.7,2.7,60,0.00,BKN,,0.03,WeatherDisplay:10.37,2013-05-09 22:34:00,
2013-05-09 18:39:00,71.2,56.6,29.98,NW,315,2.7,2.7,60,0.00,BKN,,0.03,WeatherDisplay:10.37,2013-05-09 22:39:00,
2013-05-09 18:44:00,71.2,56.6,29.98,NW,315,2.7,2.7,60,0.00,BKN,,0.03,WeatherDisplay:10.37,2013-05-09 22:44:00,
2013-05-09 18:49:00,71.2,56.6,29.98,NW,315,2.7,2.7,60,0.00,BKN,,0.03,WeatherDisplay:10.37,2013-05-09 22:49:00,
2013-05-09 18:54:00,71.2,56.6,29.98,NW,315,2.7,2.7,60,0.00,BKN,,0.03,WeatherDisplay:10.37,2013-05-09 22:54:00,
2013-05-09 18:59:00,71.2,56.6,29.98,NW,315,2.7,2.7,60,0.00,BKN,,0.03,WeatherDisplay:10.37,2013-05-09 22:59:00,
2013-05-09 19:04:00,71.2,56.6,29.98,NW,315,2.7,2.7,60,0.00,BKN,,0.03,WeatherDisplay:10.37,2013-05-09 23:04:00,
2013-05-09 19:09:00,71.2,56.6,29.98,NW,315,2.7,2.7,60,0.00,BKN,,0.03,WeatherDisplay:10.37,2013-05-09 23:09:00,
2013-05-09 19:14:00,71.2,56.6,29.98,NW,315,2.7,2.7,60,0.00,BKN,,0.03,WeatherDisplay:10.37,2013-05-09 23:14:00,
2013-05-09 19:19:00,71.2,56.6,29.98,NW,315,2.7,2.7,60,0.00,BKN,,0.03,WeatherDisplay:10.37,2013-05-09 23:19:00,
2013-05-09 19:24:00,71.2,56.6,29.98,NW,315,2.7,2.7,60,0.00,BKN,,0.03,WeatherDisplay:10.37,2013-05-09 23:24:00,
2013-05-09 19:29:00,71.2,56.6,29.98,NW,315,2.7,2.7,60,0.00,BKN,,0.03,WeatherDisplay:10.37,2013-05-09 23:29:00,
2013-05-09 19:34:00,71.2,56.6,29.98,NW,315,2.7,2.7,60,0.00,BKN,,0.03,WeatherDisplay:10.37,2013-05-09 23:34:00,
2013-05-09 19:39:00,71.2,56.6,29.98,NW,315,2.7,2.7,60,0.00,BKN,,0.03,WeatherDisplay:10.37,2013-05-09 23:39:00,
2013-05-09 19:44:00,71.2,56.6,29.98,NW,315,2.7,2.7,60,0.00,BKN,,0.03,WeatherDisplay:10.37,2013-05-09 23:44:00,
2013-05-09 19:49:00,71.2,56.6,29.98,NW,315,2.7,2.7,60,0.00,BKN,,0.03,WeatherDisplay:10.37,2013-05-09 23:49:00,
2013-05-09 19:54:00,71.2,56.6,29.98,NW,315,2.7,2.7,60,0.00,BKN,,0.03,WeatherDisplay:10.37,2013-05-09 23:54:00,
2013-05-09 19:59:00,71.2,56.6,29.98,NW,315,2.7,2.7,60,0.00,BKN,,0.03,WeatherDisplay:10.37,2013-05-09 23:59:00,
2013-05-09 20:04:00,71.2,56.6,29.98,NW,315,2.7,2.7,60,0.00,BKN,,0.03,WeatherDisplay:10.37,2013-05-10 00:04:00,
2013-05-09 20:09:00,71.2,56.6,29.98,NW,315,2.7,2.7,60,0.00,BKN,,0.03,WeatherDisplay:10.37,2013-05-10 00:09:00,
2013-05-09 20:14:00,71.2,56.6,29.98,NW,315,2.7,2.7,60,0.00,BKN,,0.03,WeatherDisplay:10.37,2013-05-10 00:14:00,
2013-05-09 20:19:00,71.2,56.6,29.98,NW,315,2.7,2.7,60,0.00,BKN,,0.03,WeatherDisplay:10.37,2013-05-10 00:19:00,
2013-05-09 20:24:00,71.2,56.6,29.98,NW,315,2.7,2.7,60,0.00,BKN,,0.03,WeatherDisplay:10.37,2013-05-10 00:24:00,
2013-05-09 20:29:00,71.2,56.6,29.98,NW,315,2.7,2.7,60,0.00,BKN,,0.03,WeatherDisplay:10.37,2013-05-10 00:29:00,
2013-05-09 20:34:00,71.2,56.6,29.98,NW,315,2.7,2.7,60,0.00,BKN,,0.03,WeatherDisplay:10.37,2013-05-10 00:34:00,
2013-05-09 20:39:00,71.2,56.6,29.98,NW,315,2.7,2.7,60,0.00,BKN,,0.03,WeatherDisplay:10.37,2013-05-10 00:39:00,
2013-05-09 20:44:00,71.2,56.6,29.98,NW,315,2.7,2.7,60,0.00,BKN,,0.03,WeatherDisplay:10.37,2013-05-10 00:44:00,
2013-05-09 20:49:00,71.2,56.6,29.98,NW,315,2.7,2.7,60,0.00,BKN,,0.03,WeatherDisplay:10.37,2013-05-10 00:49:00,
2013-05-09 20:54:00,71.2,56.6,29.98,NW,315,2.7,2.7,60,0.00,BKN,,0.03,WeatherDisplay:10.37,2013-05-10 00:54:00,
2013-05-09 20:59:00,71.2,56.6,29.98,NW,315,2.7,2.7,60,0.00,BKN,,0.03,WeatherDisplay:10.37,2013-05-10 00:59:00,
2013-05-09 21:04:00,71.2,56.6,29.98,NW,315,2.7,2.7,60,0.00,SCT,,0.03,WeatherDisplay:10.37,2013-05-10 01:04:00,
2013-05-09 21:09:00,71.2,56.6,29.98,NW,315,2.7,2.7,60,0.00,SCT,,0.03,WeatherDisplay:10.37,2013-05-10 01:09:00,
2013-05-09 21:14:00,71.2,56.6,29.98,NW,315,2.7,2.7,60,0.00,SCT,,0.03,WeatherDisplay:10.37,2013-05-10 01:14:00,
2013-05-09 21:19:00,71.2,56.6,29.98,NW,315,2.7,2.7,60,0.00,SCT,,0.03,WeatherDisplay:10.37,2013-05-10 01:19:00,
2013-05-09 21:24:00,71.2,56.6,29.98,NW,315,2.7,2.7,60,0.00,SCT,,0.03,WeatherDisplay:10.37,2013-05-10 01:24:00,
2013-05-09 21:29:00,71.2,56.6,29.98,NW,315,2.7,2.7,60,0.00,SCT,,0.03,WeatherDisplay:10.37,2013-05-10 01:29:00,
2013-05-09 21:34:00,71.2,56.6,29.98,NW,315,2.7,2.7,60,0.00,SCT,,0.03,WeatherDisplay:10.37,2013-05-10 01:34:00,
2013-05-09 21:39:00,71.2,56.6,29.98,NW,315,2.7,2.7,60,0.00,SCT,,0.03,WeatherDisplay:10.37,2013-05-10 01:39:00,
2013-05-09 21:44:00,71.2,56.6,29.98,NW,315,2.7,2.7,60,0.00,SCT,,0.03,WeatherDisplay:10.37,2013-05-10 01:44:00,
2013-05-09 21:49:00,71.2,56.6,29.98,NW,315,2.7,2.7,60,0.00,SCT,,0.03,WeatherDisplay:10.37,2013-05-10 01:49:00,
2013-05-09 21:54:00,71.2,56.6,29.98,NW,315,2.7,2.7,60,0.00,SCT,,0.03,WeatherDisplay:10.37,2013-05-10 01:54:00,
2013-05-09 21:59:00,71.2,56.6,29.98,NW,315,2.7,2.7,60,0.00,SCT,,0.03,WeatherDisplay:10.37,2013-05-10 01:59:00,
2013-05-09 22:04:00,71.2,56.6,29.98,NW,315,2.7,2.7,60,0.00,SCT,,0.03,WeatherDisplay:10.37,2013-05-10 02:04:00,
2013-05-09 22:09:00,71.2,56.6,29.98,NW,315,2.7,2.7,60,0.00,SCT,,0.03,WeatherDisplay:10.37,2013-05-10 02:09:00,
2013-05-09 22:14:00,71.2,56.6,29.98,NW,315,2.7,2.7,60,0.00,SCT,,0.03,WeatherDisplay:10.37,2013-05-10 02:14:00,
2013-05-09 22:19:00,71.2,56.6,29.98,NW,315,2.7,2.7,60,0.00,SKC,,0.03,WeatherDisplay:10.37,2013-05-10 02:19:00,
2013-05-09 22:24:00,71.2,56.6,29.98,NW,315,2.7,2.7,60,0.00,SKC,,0.03,WeatherDisplay:10.37,2013-05-10 02:24:00,
2013-05-09 22:29:00,71.2,56.6,29.98,NW,315,2.7,2.7,60,0.00,SKC,,0.03,WeatherDisplay:10.37,2013-05-10 02:29:00,
2013-05-09 22:34:00,71.2,56.6,29.98,NW,315,2.7,2.7,60,0.00,SKC,,0.03,WeatherDisplay:10.37,2013-05-10 02:34:00,
2013-05-09 22:39:00,71.2,56.6,29.98,NW,315,2.7,2.7,60,0.00,SKC,,0.03,WeatherDisplay:10.37,2013-05-10 02:39:00,
2013-05-09 22:44:00,71.2,56.6,29.98,NW,315,2.7,2.7,60,0.00,SKC,,0.03,WeatherDisplay:10.37,2013-05-10 02:44:00,
2013-05-09 22:49:00,71.2,56.6,29.98,NW,315,2.7,2.7,60,0.00,SKC,,0.03,WeatherDisplay:10.37,2013-05-10 02:49:00,
2013-05-09 22:54:00,71.2,56.6,29.98,NW,315,2.7,2.7,60,0.00,SKC,,0.03,WeatherDisplay:10.37,2013-05-10 02:54:00,
2013-05-09 22:59:00,71.2,56.6,29.98,NW,315,2.7,2.7,60,0.00,SKC,,0.03,WeatherDisplay:10.37,2013-05-10 02:59:00,
2013-05-09 23:04:00,71.2,56.6,29.98,NW,315,2.7,2.7,60,0.00,SKC,,0.03,WeatherDisplay:10.37,2013-05-10 03:04:00,
2013-05-09 23:09:00,71.2,56.6,29.98,NW,315,2.7,2.7,60,0.00,SKC,,0.03,WeatherDisplay:10.37,2013-05-10 03:09:00,
2013-05-09 23:14:00,71.2,56.6,29.98,NW,315,2.7,2.7,60,0.00,SKC,,0.03,WeatherDisplay:10.37,2013-05-10 03:14:00,
2013-05-09 23:19:00,71.2,56.6,29.98,NW,315,2.7,2.7,60,0.00,SKC,,0.03,WeatherDisplay:10.37,2013-05-10 03:19:00,
2013-05-09 23:24:00,71.2,56.6,29.98,NW,315,2.7,2.7,60,0.00,SKC,,0.03,WeatherDisplay:10.37,2013-05-10 03:24:00,
2013-05-09 23:29:00,71.2,56.6,29.98,NW,315,2.7,2.7,60,0.00,SKC,,0.03,WeatherDisplay:10.37,2013-05-10 03:29:00,
2013-05-09 23:34:00,71.2,56.6,29.98,NW,315,2.7,2.7,60,0.00,SKC,,0.03,WeatherDisplay:10.37,2013-05-10 03:34:00,
2013-05-09 23:39:00,71.2,56.6,29.98,NW,315,2.7,2.7,60,0.00,SKC,,0.03,WeatherDisplay:10.37,2013-05-10 03:39:00,
2013-05-09 23:44:00,71.2,56.6,29.98,NW,315,2.7,2.7,60,0.00,SKC,,0.03,WeatherDisplay:10.37,2013-05-10 03:44:00,
2013-05-09 23:49:00,71.2,56.6,29.98,NW,315,2.7,2.7,60,0.00,SKC,,0.03,WeatherDisplay:10.37,2013-05-10 03:49:00,
2013-05-09 23:54:00,71.2,56.6,29.98,NW,315,2.7,2.7,60,0.00,SKC,,0.03,WeatherDisplay:10.37,2013-05-10 03:54:00,
2013-05-09 23:59:00,71.2,56.6,29.98,NW,315,2.7,2.7,60,0.00,SKC,,0.03,WeatherDisplay:10.37,2013-05-10 03:59:00,